Binghamton, NY

7:57 PM EDT on September 23, 2017 (GMT -0400)
Binghamton Regional-Link

Weather History for KBGM - March, 2013

Change the Weather History Date:

Tuesday, March 19, 2013

  Actual Average Record
Temperature  
Mean Temperature 32 °F 34 °F  
Max Temperature 39 °F 42 °F 73 °F (2012)
Min Temperature 24 °F 25 °F -7 °F (1993)
Degree Days  
Heating Degree Days 33 31  
Month to date heating degree days 683 652  
Since 1 July heating degree days 5567 5851  
Cooling Degree Days 0 0  
Month to date cooling degree days 0 0  
Year to date cooling degree days 0 0  
Moisture  
Dew Point 26 °F    
Average Humidity 77    
Maximum Humidity 100    
Minimum Humidity 54    
Precipitation  
Precipitation 0.29 in 0.10 in 1.23 in (2008)
Month to date precipitation 1.52 1.73  
Year to date precipitation 6.07 6.49  
Snow  
Snow 3.20 in 0.50 in 3.90 in (2006)
Month to date snowfall 11.8 10.8  
Since 1 July snowfall 65.6 74.7  
Snow Depth 5.00 in    
Sea Level Pressure  
Sea Level Pressure 29.73 in    
Wind  
Wind Speed 11 mph (SSW)    
Max Wind Speed 24 mph    
Max Gust Speed 32 mph    
Visibility 6 miles    
Events Fog , Rain , Snow    
T = Trace of Precipitation, MM = Missing Value Source: NWS Daily Summary

Daily Weather History Graph

Daily Weather History Graph

Search for Another Location

Airport or City:

Trip Planner

Search our weather history database for the weather conditions in past years. The results will help you decide how hot, cold, wet, or windy it might be!

Date:

Astronomy

Mar. 19, 2013 Rise Set
Actual Time 7:08 AM EDT 7:15 PM EDT
Civil Twilight 6:40 AM EDT 7:43 PM EDT
Nautical Twilight 6:07 AM EDT 8:16 PM EDT
Astronomical Twilight 5:34 AM EDT 8:49 PM EDT
Moon 11:50 AM EDT (3/19) 2:06 AM EDT (3/19)
Length of Visible Light 13h 02m
Length of Day
12h 06m
Waxing Crescent, 49% of the Moon is Illuminated
Mar 19
Waxing Crescent
Mar 19
First Quarter
Mar 27
Full
Apr 3
Last Quarter
Apr 10
New

Hourly Weather History & Observations

Time (EDT) Temp. Windchill Dew Point Humidity Pressure Visibility Wind Dir Wind Speed Gust Speed Precip Events Conditions
12:35 AM 26.6 °F 15.7 °F 21.2 °F 80% 29.81 in 10.0 mi SSE 12.7 mph - 0.00 in   Overcast
12:53 AM 26.6 °F 14.7 °F 23.0 °F 86% 29.81 in 8.0 mi SE 15.0 mph - N/A Snow Light Snow
1:44 AM 26.6 °F 12.7 °F 24.8 °F 93% 29.77 in 8.0 mi SE 20.7 mph 26.5 mph 0.01 in   Overcast
1:53 AM 28.0 °F 15.3 °F 24.1 °F 85% 29.83 in 10.0 mi SSE 18.4 mph 28.8 mph 0.01 in   Overcast
2:00 AM 28.4 °F 16.2 °F 24.8 °F 86% 29.77 in 7.0 mi SSE 17.3 mph 24.2 mph 0.00 in Rain Light Freezing Rain
2:18 AM 28.4 °F 15.8 °F 24.8 °F 86% 29.76 in 6.0 mi SSE 18.4 mph 26.5 mph 0.02 in Rain Light Freezing Rain
2:53 AM 28.0 °F 16.1 °F 26.1 °F 92% 29.81 in 6.0 mi SSE 16.1 mph - 0.03 in Rain Light Freezing Rain
3:53 AM 28.0 °F 17.5 °F 26.1 °F 92% 29.79 in 10.0 mi SSE 12.7 mph - 0.00 in   Overcast
4:53 AM 28.9 °F 18.2 °F 27.0 °F 92% 29.77 in 5.0 mi SE 13.8 mph - 0.02 in Snow Light Snow
5:53 AM 28.9 °F 18.6 °F 26.1 °F 89% 29.74 in 10.0 mi SE 12.7 mph - 0.00 in   Overcast
6:53 AM 28.9 °F 18.6 °F 26.1 °F 89% 29.76 in 10.0 mi SSE 12.7 mph - 0.00 in   Overcast
7:16 AM 28.4 °F 19.1 °F 26.6 °F 93% 29.69 in 1.0 mi SE 10.4 mph - 0.02 in Snow Light Snow
7:53 AM 28.9 °F 25.2 °F 26.1 °F 89% 29.77 in 0.5 mi SSE 3.5 mph - 0.13 in Fog , Snow Snow
8:04 AM 28.4 °F 23.3 °F 26.6 °F 93% 29.72 in 0.5 mi South 4.6 mph - 0.01 in Snow Light Snow
8:13 AM 28.4 °F 24.6 °F 26.6 °F 93% 29.72 in 1.0 mi South 3.5 mph - 0.02 in Snow Light Snow
8:24 AM 28.4 °F 24.6 °F 26.6 °F 93% 29.72 in 1.0 mi South 3.5 mph - 0.03 in Snow Light Snow
8:42 AM 28.4 °F 23.3 °F 26.6 °F 93% 29.73 in 0.8 mi South 4.6 mph - 0.05 in Snow Light Snow
8:53 AM 28.9 °F 21.9 °F 28.0 °F 96% 29.78 in 0.8 mi SSE 6.9 mph - 0.05 in Snow Light Snow
8:59 AM 28.4 °F 22.2 °F 28.4 °F 100% 29.71 in 1.0 mi SSE 5.8 mph - 0.01 in Snow Light Snow
9:53 AM 30.0 °F 21.7 °F 28.0 °F 92% 29.77 in 1.0 mi SSE 9.2 mph - 0.01 in Snow Light Snow
10:12 AM 30.2 °F 23.4 °F 28.4 °F 93% 29.71 in 7.0 mi South 6.9 mph - 0.00 in   Overcast
10:39 AM 30.2 °F 24.3 °F 28.4 °F 93% 29.71 in 10.0 mi SSE 5.8 mph - 0.00 in   Overcast
10:49 AM 30.2 °F 24.3 °F 28.4 °F 93% 29.71 in 10.0 mi South 5.8 mph - 0.00 in   Overcast
10:53 AM 30.0 °F 24.1 °F 28.9 °F 96% 29.77 in 10.0 mi SSE 5.8 mph - 0.00 in   Overcast
11:53 AM 32.0 °F 25.6 °F 30.0 °F 92% 29.75 in 10.0 mi South 6.9 mph - N/A   Overcast
12:16 PM 32.0 °F 26.4 °F 30.2 °F 93% 29.68 in 10.0 mi SSW 5.8 mph - N/A   Overcast
12:36 PM 33.8 °F 27.7 °F 30.2 °F 87% 29.67 in 10.0 mi SSW 6.9 mph - N/A   Overcast
12:53 PM 34.0 °F 28.0 °F 30.0 °F 85% 29.72 in 10.0 mi SW 6.9 mph - N/A   Overcast
1:40 PM 35.6 °F 29.9 °F 28.4 °F 75% 29.65 in 10.0 mi South 6.9 mph - N/A   Mostly Cloudy
1:53 PM 37.0 °F 34.5 °F 28.0 °F 70% 29.69 in 10.0 mi Variable 3.5 mph - 0.01 in   Mostly Cloudy
2:53 PM 39.0 °F 30.3 °F 24.1 °F 55% 29.67 in 10.0 mi WSW 16.1 mph 19.6 mph N/A   Overcast
3:53 PM 37.9 °F 28.5 °F 23.0 °F 55% 29.67 in 10.0 mi West 17.3 mph - N/A   Mostly Cloudy
4:07 PM 35.6 °F 25.5 °F 26.6 °F 70% 29.64 in 1.0 mi West 17.3 mph 23.0 mph N/A   Haze
4:09 PM 35.6 °F 25.2 °F 26.6 °F 70% 29.64 in 0.5 mi West 18.4 mph 23.0 mph 0.00 in Snow Light Snow
4:19 PM 32.0 °F 23.0 °F 28.4 °F 87% 29.63 in 0.2 mi WSW 11.5 mph 26.5 mph 0.00 in Snow Heavy Snow
4:22 PM 32.0 °F 24.2 °F 30.2 °F 93% 29.62 in 0.2 mi SSW 9.2 mph 26.5 mph 0.00 in Snow Snow
4:24 PM 32.0 °F 25.6 °F 30.2 °F 93% 29.62 in 0.5 mi SSW 6.9 mph 26.5 mph 0.00 in Snow Snow
4:30 PM 33.8 °F 26.4 °F 28.4 °F 81% 29.63 in 2.0 mi SW 9.2 mph - 0.00 in Snow Light Snow
4:33 PM 33.8 °F 26.4 °F 28.4 °F 81% 29.62 in 7.0 mi SW 9.2 mph - 0.00 in Snow Light Snow
4:53 PM 33.1 °F 22.2 °F 28.9 °F 85% 29.70 in 2.5 mi NW 17.3 mph 24.2 mph 0.00 in Snow Light Snow
4:58 PM 30.2 °F 21.3 °F 28.4 °F 93% 29.65 in 0.8 mi NW 10.4 mph 24.2 mph 0.01 in Snow Light Snow
5:05 PM 30.2 °F 20.8 °F 28.4 °F 93% 29.65 in 0.5 mi NW 11.5 mph - 0.02 in Fog , Snow Snow
5:12 PM 30.2 °F 21.3 °F 28.4 °F 93% 29.66 in 0.2 mi NW 10.4 mph - 0.03 in Fog , Snow Heavy Snow
5:26 PM 30.2 °F 21.9 °F 28.4 °F 93% 29.66 in 1.0 mi NNW 9.2 mph - 0.04 in Snow Light Snow
5:33 PM 30.2 °F 20.2 °F 28.4 °F 93% 29.66 in 3.0 mi NNW 12.7 mph 17.3 mph 0.04 in Snow Light Snow
5:53 PM 30.0 °F 19.1 °F 25.0 °F 82% 29.72 in 10.0 mi NNW 15.0 mph 20.7 mph 0.04 in   Overcast
6:51 PM 28.4 °F 17.5 °F 21.2 °F 74% 29.71 in 1.8 mi NW 13.8 mph 25.3 mph 0.00 in Snow Light Snow
6:53 PM 28.0 °F 16.1 °F 21.9 °F 78% 29.77 in 1.5 mi WNW 16.1 mph 25.3 mph 0.00 in Snow Light Snow
6:57 PM 26.6 °F 16.2 °F 21.2 °F 80% 29.72 in 1.5 mi NW 11.5 mph 21.9 mph 0.00 in Snow Light Snow
7:07 PM 26.6 °F 16.8 °F 23.0 °F 86% 29.73 in 4.0 mi NW 10.4 mph - 0.00 in Snow Light Snow
7:53 PM 27.0 °F 16.7 °F 19.9 °F 75% 29.80 in 9.0 mi WNW 11.5 mph - 0.00 in Snow Light Snow
8:53 PM 26.1 °F 20.5 °F 19.9 °F 78% 29.82 in 10.0 mi WNW 4.6 mph - N/A   Mostly Cloudy
9:53 PM 26.1 °F 18.4 °F 18.0 °F 71% 29.82 in 10.0 mi WNW 6.9 mph - N/A   Overcast
10:53 PM 25.0 °F 15.5 °F 16.0 °F 69% 29.82 in 10.0 mi WNW 9.2 mph 17.3 mph N/A   Overcast
11:53 PM 24.1 °F 13.7 °F 16.0 °F 71% 29.81 in 10.0 mi West 10.4 mph - N/A   Overcast